Lid_Strength_Index
12 15 16 13 12 11 12 12 13 11 10 10 11 11 10 9 9 8 7 7 6 6 6 5 4 4 5 5 5 4 2 2 2 2 3 4 4 5 4 3 2 3 2 2
14 15 12 12 12 12 13 14 14 11 10 11 11 11 10 9 9 8 8 8 7 7 6 5 6 6 4 4 3 3 2 2 2 3 4 4 5 5 5 4 4 2 1 2
16 14 11 12 13 13 14 14 14 13 11 11 12 13 12 10 9 8 7 7 7 7 7 6 6 5 4 3 3 3 2 3 3 4 4 4 5 5 5 4 4 3 2 1
15 14 13 13 13 13 16 12 12 12 14 16 12 17 13 11 11 10 9 8 8 7 6 6 5 6 4 4 3 3 3 3 3 3 4 4 5 6 5 4 4 3 2 2
14 14 14 14 14 12 14 12 12 12 14 15 14 17 15 12 12 11 10 9 8 7 7 6 6 5 4 3 3 3 3 4 4 4 4 5 6 6 5 4 3 3 3 2
12 10 12 13 11 12 11 13 13 13 15 18 15 16 16 13 12 11 9 9 8 7 7 7 6 4 4 3 4 4 4 5 5 4 5 5 5 5 4 4 4 4 4 3
10 11 10 10 13 12 14 17 19 20 19 19 14 15 15 12 11 10 10 9 8 7 8 5 6 5 4 4 4 4 4 5 5 5 5 4 4 4 4 4 4 4 4 4
15 16 10 8 12 13 15 16 19 21 20 19 14 17 15 10 9 9 8 9 8 8 8 6 5 5 4 4 4 4 5 5 4 4 4 4 4 4 4 4 4 4 4 4
14 14 9 9 9 10 13 17 14 18 17 19 17 14 12 10 10 10 9 10 10 10 7 6 5 5 4 4 4 4 4 4 4 4 3 4 4 4 4 3 3 3 3 2
11 15 10 8 8 9 11 11 17 19 20 21 18 17 16 13 11 10 10 10 10 9 6 6 5 5 4 4 4 4 4 4 4 4 4 3 3 3 3 3 3 3 3 2
11 13 12 10 11 13 12 13 14 16 17 21 21 18 13 12 11 11 11 11 9 7 7 6 5 4 4 4 3 3 4 4 4 4 4 4 4 3 3 3 3 3 3 3
10 13 16 13 9 8 11 12 13 16 19 17 19 18 11 11 11 12 12 10 8 7 6 6 5 5 4 4 4 3 3 3 4 4 3 3 3 3 3 3 3 3 3 2
11 14 17 15 13 10 12 11 12 13 15 18 19 19 11 11 11 11 12 8 7 7 6 6 5 5 5 4 4 4 3 4 4 3 3 3 3 3 3 3 3 3 3 2
8 13 15 18 14 12 13 12 11 13 17 16 16 16 14 12 10 10 11 7 8 7 6 6 6 5 4 4 4 3 4 4 4 3 3 3 3 3 3 3 3 3 2 3
10 14 13 13 12 12 12 12 12 13 13 16 14 15 13 11 11 10 10 9 7 7 7 6 6 5 5 4 4 3 3 4 3 3 3 3 3 3 3 3 3 3 3 2
10 15 12 15 12 12 14 12 12 12 12 13 13 14 11 9 10 8 8 8 7 7 7 6 5 5 5 4 4 4 4 4 3 3 3 2 2 3 3 3 3 3 3 2
12 13 15 16 12 14 16 14 12 11 10 12 15 12 9 9 9 8 8 8 7 7 6 6 5 5 4 4 3 4 4 3 3 3 2 2 2 2 3 3 3 3 3 4
11 13 13 16 14 21 13 10 10 11 10 9 10 10 9 9 8 7 7 7 7 6 6 5 5 4 4 3 4 4 4 3 3 3 3 2 2 2 3 3 3 4 4 4
10 11 15 17 18 15 13 11 12 13 13 10 10 10 9 8 8 8 6 6 6 5 5 4 4 4 3 4 4 4 4 3 3 3 3 2 2 2 3 3 4 4 3 4
10 10 14 15 19 20 14 10 8 9 15 9 9 9 9 9 13 10 7 5 6 5 4 4 4 3 4 4 5 4 4 3 3 3 3 2 2 2 3 3 4 4 3 4
14 14 16 16 17 15 12 11 9 17 15 8 9 9 10 11 9 7 6 5 5 5 4 4 4 4 4 5 4 4 4 4 3 3 2 2 2 2 3 4 4 4 4 4
15 16 16 15 17 19 11 11 13 10 8 8 8 8 9 9 9 8 6 5 5 5 4 4 4 5 5 5 4 4 4 3 3 3 3 3 3 2 2 3 4 3 4 4
15 12 14 13 14 10 9 8 7 6 7 8 8 7 8 9 9 8 7 6 5 5 4 4 4 5 6 5 4 5 4 5 4 3 4 3 3 2 3 3 4 4 4 3
10 8 12 12 10 9 8 7 7 6 7 7 6 7 7 9 9 8 7 6 6 4 4 4 5 6 6 5 5 4 4 4 3 3 4 3 3 3 3 3 3 3 3 3
10 9 11 11 9 8 8 8 7 7 6 7 7 7 7 8 9 8 7 6 6 5 4 4 5 5 6 6 5 5 3 4 3 3 3 4 3 3 3 3 4 3 3 3
8 10 12 13 8 8 9 8 7 7 7 7 7 7 7 7 8 7 6 6 5 5 5 5 4 5 5 5 5 5 5 3 3 3 3 4 3 3 3 4 6 13 10 9